www.pogodaiklimat.ru

Погода и климат >> Архив погоды >> Боливия >> Concepcion


ПОГОДА в Concepcion

  • Прогноз погоды в Concepcion
  • Монитор погоды в Concepcion
  • Климат города

АРХИВ ПОГОДЫ в Concepcion

Время (UTC), дата Ветер
(напр.,м/с)
 
Видим.   Явления Облачность Т
(С)
Тd
(С)
f
(%)
Тe
(С)
Тes
(С)
Комфортность P
(гПа)
Po
(гПа)
Тmin
(С)
Tmax
(С)
R
(мм)
R24
(мм)
S
(см)
12 15.10 Ю 5 30 км 4/0 2000 м
[Ac trans]
+21.0 +16.4 75 +25 +27 комфорт 1015.7 957.2 +18.0
15 15.10 Ю 5 30 км 5/5 700 м
[Sc]
+25.0 +18.5 67 +30 +35 душно 1015.8 957.3
18 15.10 штиль 0 30 км 8/8 700 м
[Cu Sc]
+28.7 +19.6 58 +35 +39 очень
душно
1012.2 953.7
21 15.10 СЗ 3 30 км 8/1 600 м
[Cu hum Ci sp]
+30.0 +21.5 60 +38 +39 очень
душно
1010.1 951.2 +31.2
12 16.10 штиль 0 30 км 8/0
[Ci sp]
+24.0 +21.6 86 +31 +37 очень
душно
1011.7 953.2 +20.5
15 16.10 СЗ 7 30 км 8/8 500 м
[Cu med, cong]
+29.5 +22.7 67 +39 +40 очень
душно
1012.1 953.4
18 16.10 СЗ 8 30 км 8/8 500 м
[Cu med, cong]
+31.5 +22.7 60 +41 +42 опасность
перегрева
1008.7 950.2
21 16.10 СЗ 8 30 км 3/3 500 м
[Cu hum]
+31.5 +22.7 60 +41 +42 опасность
перегрева
1006.8 948.3 +33.2
15 17.10 С 8 20 км дым 5/5 500 м
[Cu hum]
+31.5 +22.7 60 +41 +43 опасность
перегрева
1012.7 954.3
18 17.10 С 8 20 км дым 8/4 600 м
[Cu med, cong Ci sp]
+33.7 +22.4 52 +43 +45 опасность
перегрева
1009.1 950.6
21 17.10 СЗ 6 20 км дым 8/1 600 м
[Cu med, cong Ci sp]
+32.0 +21.8 55 +41 +41 опасность
перегрева
1007.8 949.8 +35.3
12 18.10 СЗ 2 8000 м дым 9/0
[Ci sp]
+25.0 +22.2 84 +32 +37 очень
душно
1012.4 954.2 +22.0
15 18.10 СЗ 5 15 км дым 9/0
[Ci sp]
+30.7 +23.0 64 +41 +49 опасность
перегрева
1013.0 954.3
18 18.10 С 4 15 км дым 9/6 600 м
[Cu med, cong Ci sp]
+34.0 +21.8 49 +42 +46 опасность
перегрева
1009.8 951.3
21 18.10 СЗ 5 9000 м дым 8/3 600 м
[Cu hum Ci sp]
+33.0 +22.2 53 +42 +43 опасность
перегрева
1007.8 949.3 +35.0
12 19.10 СЗ 3 5000 м дым 3/0 2000 м
[Ac trans]
+24.0 +22.6 92 +31 +35 очень
душно
1012.5 954.0 +22.0
15 19.10 СЗ 8 15 км дым 5/5 500 м
[Cu hum]
+31.0 +22.9 62 +41 +43 опасность
перегрева
1012.7 954.3
18 19.10 С 5 20 км дым туман 9/6 600 м
[Cu med, cong Ci sp]
+31.0 +22.9 62 +41 +44 опасность
перегрева
1009.1 950.9
21 19.10 Ю 4 30 км 10/4 600 м
[Sc Cs]
+23.5 +21.4 88 +30 +31 очень
душно
1009.8 951.5 +33.0
12 20.10 Ю 5 30 км 10/8 450 м
[Sc Cs]
+22.5 +20.3 87 +29 +29 очень
душно
1013.6 955.2 +20.0
15 20.10 Ю 5 30 км 10/10 450 м
[Sc]
+25.2 +20.7 76 +31 +31 очень
душно
1013.5 955.0
18 20.10 штиль 0 30 км 10/8 450 м
[Sc As op]
+28.0 +21.8 69 +36 +37 очень
душно
1011.2 952.8
21 20.10 Ю 4 30 км 8/5 500 м
[Cb cap Ac trans]
+28.5 +22.4 70 +37 +38 очень
душно
1009.2 950.8 +30.3
12 21.10 штиль 0 30 км 5/0 2000 м
[Ac trans]
+24.0 +22.6 92 +31 +37 очень
душно
1013.2 954.7 +20.0
15 21.10 С 3 30 км 6/6 500 м
[Cu med, cong]
+30.0 +23.3 67 +40 +47 очень
душно
1013.0 954.5
18 21.10 С 6 30 км 8/8 500 м
[Cb cap]
+32.0 +22.5 57 +41 +43 опасность
перегрева
1008.7 950.2
21 21.10 штиль 0 30 км гроза без осадков 10/9 500 м
[Cb cap As op]
+25.5 +23.5 89 +35 +35 очень
душно
1008.7 950.2 +33.0

 

Местоположение метеостанции Concepcion (Боливия): широта -16.14 долгота -62.01 высота над уровнем моря 497 м.

В архиве по умолчанию представлена погода в Concepcion за последнюю неделю. Архивные данные за месяц целиком и за предыдущие месяцы, начиная с января 2011 года, Вы можете получить, выбрав интересующий диапазон дат из раскрывающегося списка и нажав кнопку "Ввод!".


*Определитесь, кто Вы:
робот инопланетянин человек

Внимание! Время в таблицах - всемирное. Для получения местного времени необходимо прибавить поправку, которая в Concepcion равна -4 ч.

Смотрите также архив погоды в соседних городах и на ближайших метеорологических станциях:

Погода в San Javier (Боливия) (50 км)
Погода в San Ignacio De Velasco (Боливия) (115 км)
Погода в Ascencion De Guaray (Боливия) (126 км)
Погода в Viru-Viru (Боливия) (204 км)
Погода в Santa Cruz (Боливия) (223 км)
Погода в San Jose De Chiquitos (Боливия) (229 км)
Погода в Vila Bela da S Trind (Бразилия) (258 км)
Погода в Pontes E Lacerda (Бразилия) (302 км)
Погода в Vallegrande (Боливия) (340 км)
Погода в Robore (Боливия) (340 км)

Пояснения к столбцам:

Ветер - указаны скорость ветра в м/с - средняя за 10 мин, порывы в срок и между сроками (в фигурных скобках) и направление, откуда дует ветер: С - северный, СВ - северо-восточный, В - восточный, ЮВ - юго-восточный, Ю - южный, ЮЗ - юго-западный, З - западный, СЗ - северо-западный.
Видимость - горизонтальная дальность видимости в метрах или километрах. При видимости от 1 до 10 км при отсутствии осадков обычно наблюдается дымка, при ухудшении видимости до 1 км и менее - туман. В сухую погоду видимость может ухудшаться дымом, пылью или мглою.
Явления - указаны атмосферные явления, наблюдавшиеся в срок или в последний час перед сроком; фигурными скобками обозначены явления, наблюдавшиеся между сроками (за 1-3 часа до срока); квадратными скобками обозначены град или гололедные отложения с указанием их диаметра в мм.
Облачность - указаны через наклонную черту общая и нижняя облачность в баллах и высота нижней границы облаков в метрах; квадратными скобками обозначены формы облаков: Ci - перистые, Cs - перисто-слоистые, Cc - перисто-кучевые, Ac - высококучевые, As - высокослоистые, Sc - слоисто-кучевые, Ns - слоисто-дождевые, Cu - кучевые, Cb - кучево-дождевые. Подробнее классификацию облаков см. в Атласе облаков (PDF).
T - Температура воздуха - температура, измеренная на высоте 2 м над землей.
Td - Температура точки росы - температура, при понижении до которой содержащийся в воздухе водяной пар достигнет насыщения.
f - Относительная влажность воздуха - влажноcть воздуха, измеренная на высоте 2 м над землей.
Te - Эффективная температура - температура, которую ощущает одетый по сезону человек в тени. Характеристика душности погоды. При расчете учитывается влияние влажности воздуха и скорости ветра на теплоощущения человека.
Tes - Эффективная температура на солнце - температура, которую ощущает человек, с поправкой на солнечный нагрев. Характеристика знойности погоды. Зависит от высоты солнца над горизонтом, облачности и скорости ветра. Ночью, в пасмурную погоду, а также при ветре 12 м/с и более поправка равна нулю.
P - Атмосферное давление - приведенное к уровню моря атмосферное давление.
Po - Атмосферное давление - измеренное на уровне метеостанции атмосферное давление.
Tmin - Минимальная температура - минимум температуры воздуха на высоте 2 м над землей.
Tmax - Максимальная температура - максимум температуры воздуха на высоте 2 м над землей.
R - Количество осадков - Количество выпавших осадков за период времени, мм. При наведении курсора мыши на число - период времени, за который выпало указанное количество осадков.
R24 - Количество осадков - Количество выпавших осадков за 24 часа, мм.
S - Снежный покров - Высота снежного покрова, см. При наведении курсора мыши на число - состояние снежного покрова и степень покрытия местности в баллах.